{"data":{"norad_id":67032,"epoch":"2026-05-25T04:46:57.620928Z","epoch_age_seconds":61294,"freshness":"FRESH","line1":"1 67032U 25294C   26145.19927802  .00023211  00000+0  85032-3 0  9995","line2":"2 67032  42.9999 325.7120 0000696  25.7703 334.3183 15.27581355 26507","mean_motion":15.27581355,"eccentricity":6.96e-5,"inclination_deg":42.9999,"raan_deg":325.712,"arg_perigee_deg":25.7703,"mean_anomaly_deg":334.3183,"bstar":0.00085032,"rev_number":2650,"period_min":94.266665096865,"perigee_km":482.5675004153,"apogee_km":483.52257695509,"semimajor_km":6861.1820386852,"source":"CELESTRAK","updated_at":"2026-05-25T13:38:21.436534Z"}}